This is the latest recevied weather packets stored in our database for station/object DM2KB-13. If no packets are shown the sender has not sent any weather packets the latest 10 day(s).
| Time | Temp. | Humidity | Pressure | Rain* | Wind** | Luminosity | Snow |
|---|---|---|---|---|---|---|---|
| 1777631072 | 22.22° C | 32% | 1025.1 hPa | 0 mm | - | 765 W/m² | - |
| 1777630771 | 22.22° C | 31% | 1025.2 hPa | 0 mm | - | 759 W/m² | - |
| 1777630471 | 21.67° C | 32% | 1025.3 hPa | 0 mm | - | 754 W/m² | - |
| 1777630171 | 21.67° C | 32% | 1025.3 hPa | 0 mm | - | 749 W/m² | - |
| 1777629871 | 21.67° C | 34% | 1025.4 hPa | 0 mm | - | 742 W/m² | - |
| 1777629570 | 21.67° C | 32% | 1025.4 hPa | 0 mm | - | 737 W/m² | - |
| 1777629270 | 21.67° C | 33% | 1025.5 hPa | 0 mm | - | 731 W/m² | - |
| 1777628970 | 21.67° C | 33% | 1025.5 hPa | 0 mm | - | 724 W/m² | - |
| 1777628669 | 21.67° C | 34% | 1025.7 hPa | 0 mm | - | 717 W/m² | - |
| 1777628369 | 21.67° C | 35% | 1025.7 hPa | 0 mm | - | 710 W/m² | - |
| 1777628069 | 21.67° C | 35% | 1025.7 hPa | 0 mm | - | 703 W/m² | - |
| 1777627768 | 21.11° C | 37% | 1025.8 hPa | 0 mm | - | 696 W/m² | - |
| 1777627468 | 21.11° C | 37% | 1025.9 hPa | 0 mm | - | 687 W/m² | - |
| 1777627168 | 20.56° C | 36% | 1025.8 hPa | 0 mm | - | 677 W/m² | - |
| 1777626868 | 20.56° C | 36% | 1026 hPa | 0 mm | - | 668 W/m² | - |
| 1777626567 | 20° C | 36% | 1026 hPa | 0 mm | - | 661 W/m² | - |
| 1777626267 | 20° C | 37% | 1026 hPa | 0 mm | - | 650 W/m² | - |
| 1777625967 | 19.44° C | 38% | 1026 hPa | 0 mm | - | 642 W/m² | - |
| 1777625667 | 19.44° C | 37% | 1026.1 hPa | 0 mm | - | 633 W/m² | - |
| 1777625366 | 19.44° C | 36% | 1026 hPa | 0 mm | - | 621 W/m² | - |
| 1777625066 | 19.44° C | 39% | 1026.1 hPa | 0 mm | - | 613 W/m² | - |
| 1777624766 | 18.89° C | 40% | 1026.1 hPa | 0 mm | - | 603 W/m² | - |
| 1777624465 | 18.33° C | 40% | 1026.1 hPa | 0 mm | - | 591 W/m² | - |
| 1777624165 | 18.33° C | 39% | 1026.1 hPa | 0 mm | - | 580 W/m² | - |
| 1777623865 | 17.78° C | 40% | 1026.1 hPa | 0 mm | - | 571 W/m² | - |
* Rain latest hour (hover to see other rain measurements)
** Current wind speed in m/s (hover to see current wind gust speed)